• In Belarus
  • List of Countries
  • For 7 days
  • Water Temperature
  • Satellite Maps
  • Weather Map
  • Weather Widgets
  • user-avatar
    Login

    Hourly Weather Algiers

    Today, 23 February, Friday

    Time Temperature Precipitation Wind Pressure Humidity
    00:00 +7°C° 0.2 mm 3 mps 741 mmHg 73%
    01:00 +7°C° 0.2 mm 3 mps 741 mmHg 72%
    02:00 +7°C° 0.2 mm 3 mps 740 mmHg 72%
    03:00 +7°C° 0.2 mm 3 mps 740 mmHg 72%
    04:00 +7°C° 0.2 mm 3 mps 740 mmHg 73%
    05:00 +7°C° 0.2 mm 3 mps 740 mmHg 74%
    06:00 +5°C° 0 mm 3 mps 740 mmHg 80%
    07:00 +7°C° 0.1 mm 3 mps 740 mmHg 74%
    08:00 +9°C° 0.1 mm 3 mps 741 mmHg 68%
    09:00 +10°C° 0.1 mm 3 mps 741 mmHg 63%
    10:00 +11°C° 0 mm 3 mps 741 mmHg 57%
    11:00 +12°C° 0 mm 3 mps 741 mmHg 52%
    12:00 +12°C° 0 mm 4 mps 741 mmHg 47%
    13:00 +13°C° 0 mm 4 mps 741 mmHg 47%
    14:00 +13°C° 0 mm 4 mps 741 mmHg 47%
    15:00 +13°C° 0 mm 3 mps 740 mmHg 47%
    16:00 +11°C° 0 mm 3 mps 741 mmHg 55%
    17:00 +10°C° 0 mm 2 mps 741 mmHg 63%
    18:00 +8°C° 0 mm 2 mps 741 mmHg 70%
    19:00 +8°C° 0 mm 2 mps 741 mmHg 74%
    20:00 +7°C° 0 mm 2 mps 741 mmHg 77%
    21:00 +7°C° 0 mm 2 mps 741 mmHg 80%
    22:00 +6°C° 0 mm 2 mps 741 mmHg 80%
    23:00 +6°C° 0 mm 2 mps 741 mmHg 79%

    Tomorrow, 24 February, Saturday

    Time Temperature Precipitation Wind Pressure Humidity
    00:00 +6°C° 0 mm 2 mps 741 mmHg 79%
    01:00 +6°C° 0 mm 2 mps 741 mmHg 78%
    02:00 +5°C° 0 mm 3 mps 741 mmHg 76%
    03:00 +5°C° 0 mm 3 mps 741 mmHg 75%
    04:00 +5°C° 0 mm 3 mps 741 mmHg 74%
    05:00 +5°C° 0 mm 3 mps 741 mmHg 73%
    06:00 +5°C° 0 mm 3 mps 741 mmHg 72%
    07:00 +7°C° 0 mm 3 mps 741 mmHg 67%
    08:00 +8°C° 0 mm 4 mps 741 mmHg 61%
    09:00 +11°C° 0 mm 4 mps 741 mmHg 56%
    10:00 +12°C° 0 mm 4 mps 741 mmHg 54%
    11:00 +13°C° 0 mm 4 mps 741 mmHg 51%
    12:00 +14°C° 0 mm 5 mps 741 mmHg 49%
    13:00 +14°C° 0 mm 5 mps 741 mmHg 52%
    14:00 +14°C° 0 mm 5 mps 741 mmHg 55%
    15:00 +14°C° 0 mm 6 mps 740 mmHg 58%
    16:00 +12°C° 0 mm 5 mps 741 mmHg 67%
    17:00 +10°C° 0 mm 5 mps 741 mmHg 76%
    18:00 +8°C° 0 mm 5 mps 741 mmHg 85%
    19:00 +8°C° 0 mm 4 mps 742 mmHg 87%
    20:00 +7°C° 0 mm 4 mps 742 mmHg 88%
    21:00 +7°C° 0 mm 3 mps 743 mmHg 90%
    22:00 +7°C° 0 mm 3 mps 743 mmHg 90%
    23:00 +7°C° 0 mm 2 mps 743 mmHg 90%

    Day after tomorrow, 25 February, Sunday

    Time Temperature Precipitation Wind Pressure Humidity
    00:00 +7°C° 0 mm 2 mps 743 mmHg 89%
    01:00 +8°C° 0 mm 1 mps 743 mmHg 90%
    02:00 +8°C° 0 mm 1 mps 744 mmHg 90%
    03:00 +8°C° 0 mm 1 mps 744 mmHg 90%
    04:00 +8°C° 0 mm 1 mps 744 mmHg 90%
    05:00 +7°C° 0 mm 1 mps 744 mmHg 90%
    06:00 +6°C° 0 mm 2 mps 744 mmHg 90%
    07:00 +8°C° 0.1 mm 2 mps 745 mmHg 83%
    08:00 +9°C° 0.1 mm 2 mps 745 mmHg 76%
    09:00 +10°C° 0.1 mm 3 mps 745 mmHg 70%
    10:00 +11°C° 0 mm 3 mps 745 mmHg 62%
    11:00 +12°C° 0 mm 4 mps 745 mmHg 55%
    12:00 +14°C° 0 mm 5 mps 745 mmHg 48%
    13:00 +14°C° 0 mm 5 mps 745 mmHg 48%
    14:00 +14°C° 0 mm 5 mps 745 mmHg 49%
    15:00 +14°C° 0 mm 6 mps 744 mmHg 49%
    16:00 +12°C° 0 mm 5 mps 745 mmHg 56%
    17:00 +10°C° 0 mm 5 mps 745 mmHg 62%
    18:00 +8°C° 0 mm 4 mps 745 mmHg 69%
    19:00 +8°C° 0 mm 4 mps 745 mmHg 70%
    20:00 +8°C° 0 mm 4 mps 745 mmHg 72%
    21:00 +8°C° 0 mm 3 mps 746 mmHg 73%
    22:00 +8°C° 0 mm 3 mps 745 mmHg 71%
    23:00 +8°C° 0 mm 3 mps 745 mmHg 68%

    26 February, Monday

    Time Temperature Precipitation Wind Pressure Humidity
    00:00 +8°C° 0 mm 3 mps 745 mmHg 66%
    01:00 +8°C° 0 mm 3 mps 745 mmHg 64%
    02:00 +8°C° 0 mm 3 mps 744 mmHg 62%
    03:00 +7°C° 0 mm 3 mps 744 mmHg 61%
    04:00 +7°C° 0 mm 3 mps 743 mmHg 60%
    05:00 +7°C° 0 mm 3 mps 743 mmHg 59%
    06:00 +7°C° 0 mm 3 mps 743 mmHg 58%
    07:00 +9°C° 0 mm 3 mps 743 mmHg 55%
    08:00 +11°C° 0 mm 3 mps 742 mmHg 51%
    09:00 +13°C° 0 mm 3 mps 742 mmHg 47%
    10:00 +16°C° 0 mm 2 mps 742 mmHg 42%
    11:00 +18°C° 0 mm 2 mps 741 mmHg 37%
    12:00 +20°C° 0 mm 1 mps 741 mmHg 32%
    13:00 +20°C° 0 mm 2 mps 740 mmHg 35%
    14:00 +20°C° 0 mm 2 mps 739 mmHg 37%
    15:00 +20°C° 0 mm 3 mps 738 mmHg 40%
    16:00 +18°C° 0 mm 3 mps 738 mmHg 47%
    17:00 +15°C° 0 mm 2 mps 738 mmHg 54%
    18:00 +13°C° 0 mm 2 mps 738 mmHg 60%
    19:00 +12°C° 0 mm 2 mps 738 mmHg 61%
    20:00 +12°C° 0 mm 2 mps 738 mmHg 62%
    21:00 +10°C° 0 mm 2 mps 739 mmHg 63%
    22:00 +10°C° 0 mm 2 mps 739 mmHg 63%
    23:00 +10°C° 0 mm 2 mps 739 mmHg 63%

    27 February, Tuesday

    Time Temperature Precipitation Wind Pressure Humidity
    00:00 +10°C° 0 mm 2 mps 739 mmHg 64%
    01:00 +10°C° 0 mm 2 mps 739 mmHg 63%
    02:00 +9°C° 0 mm 3 mps 739 mmHg 63%
    03:00 +9°C° 0 mm 3 mps 739 mmHg 63%
    04:00 +9°C° 0 mm 3 mps 739 mmHg 64%
    05:00 +9°C° 0 mm 3 mps 739 mmHg 66%
    06:00 +8°C° 0 mm 4 mps 740 mmHg 67%
    07:00 +10°C° 0.3 mm 3 mps 740 mmHg 69%
    08:00 +10°C° 0.3 mm 3 mps 740 mmHg 71%
    09:00 +10°C° 0.3 mm 3 mps 740 mmHg 73%
    10:00 +11°C° 0.7 mm 3 mps 740 mmHg 76%
    11:00 +11°C° 0.7 mm 3 mps 740 mmHg 80%
    12:00 +11°C° 0.7 mm 3 mps 740 mmHg 83%
    13:00 +12°C° 0.2 mm 4 mps 740 mmHg 82%
    14:00 +13°C° 0.2 mm 4 mps 740 mmHg 80%
    15:00 +14°C° 0.2 mm 5 mps 740 mmHg 79%
    16:00 +13°C° 0.2 mm 5 mps 740 mmHg 81%
    17:00 +12°C° 0.2 mm 5 mps 741 mmHg 83%
    18:00 +11°C° 0.2 mm 6 mps 741 mmHg 85%
    19:00 +10°C° 0.2 mm 6 mps 742 mmHg 85%
    20:00 +10°C° 0.2 mm 6 mps 742 mmHg 85%
    21:00 +9°C° 0.2 mm 6 mps 743 mmHg 84%
    22:00 +9°C° 0 mm 5 mps 743 mmHg 84%
    23:00 +9°C° 0 mm 5 mps 743 mmHg 83%

    28 February, Wednesday

    Time Temperature Precipitation Wind Pressure Humidity
    00:00 +9°C° 0 mm 5 mps 743 mmHg 82%
    01:00 +10°C° 0 mm 4 mps 743 mmHg 81%
    02:00 +10°C° 0 mm 4 mps 743 mmHg 80%
    03:00 +10°C° 0 mm 4 mps 743 mmHg 78%
    04:00 +10°C° 0 mm 3 mps 743 mmHg 78%
    05:00 +9°C° 0 mm 3 mps 743 mmHg 78%
    06:00 +9°C° 0 mm 3 mps 743 mmHg 77%
    07:00 +11°C° 0 mm 3 mps 743 mmHg 72%
    08:00 +13°C° 0 mm 4 mps 743 mmHg 67%
    09:00 +15°C° 0 mm 4 mps 743 mmHg 63%
    10:00 +18°C° 0 mm 4 mps 742 mmHg 55%
    11:00 +20°C° 0 mm 4 mps 741 mmHg 47%
    12:00 +22°C° 0 mm 4 mps 741 mmHg 40%
    13:00 +23°C° 0 mm 4 mps 740 mmHg 37%
    14:00 +25°C° 0 mm 4 mps 739 mmHg 34%
    15:00 +26°C° 0 mm 4 mps 738 mmHg 31%
    16:00 +23°C° 0 mm 4 mps 738 mmHg 32%
    17:00 +21°C° 0 mm 4 mps 738 mmHg 32%
    18:00 +19°C° 0 mm 3 mps 738 mmHg 32%
    19:00 +19°C° 0 mm 3 mps 738 mmHg 32%
    20:00 +18°C° 0 mm 3 mps 738 mmHg 32%
    21:00 +18°C° 0 mm 3 mps 738 mmHg 32%
    22:00 +17°C° 0 mm 4 mps 738 mmHg 35%
    23:00 +17°C° 0 mm 4 mps 738 mmHg 39%
    Show more